Location: Wanzleben
(52.0609°N, 11.4408°E)
Time: 18:19:45
(UTC+00:00)

Meteor 2-9 Rocket - Pass Details

Date: 18 September 2020
Orbit: 791 x 896 km, 81.3° (Epoch: 22 October)

Event Time Altitude Azimuth Distance (km) Brightness Sun altitude
Rises 17:51:48 0° 178° (S) 3,499 7.3 -5.5°
Reaches altitude 10° 17:54:17 10° 174° (S) 2,561 6.6 -5.9°
Maximum altitude 18:00:01 60° 97° (E) 1,018 4.4 -6.8°
Drops below altitude 10° 18:05:42 10° 19° (NNE) 2,540 6.6 -7.6°
Sets 18:08:09 0° 16° (NNE) 3,468 7.4 -8.0°
